Regional Weather Roundup
Issued by NWS Nashville, TN

Home | Current Version | Previous Version | Text Only | Print | Product List | Glossary On
Versions: 1 2 3 4 5 6 7 8 9 10 11 12 13 14 15 16 17 18 19 20 21 22 23 24 25 26 27 28
000
ASUS44 KOHX 190310
RWROHX
MIDDLE TENNESSEE HOURLY WEATHER ROUNDUP
NATIONAL WEATHER SERVICE NASHVILLE TN
900 PM CST WED JAN 18 2017

NOTE: "FAIR" INDICATES FEW OR NO CLOUDS BELOW 12,000 FEET WITH
NO SIGNIFICANT WEATHER AND/OR OBSTRUCTIONS TO VISIBILITY.

* THESE REPORTS ARE NOT UNDER NWS QUALITY CONTROL AND MAY NOT
  REPORT WEATHER SUCH AS PRECIPITATION AND FOG.


TNZ005>011-023>034-057-059-062>066-078-080-190400
...NORTHERN MIDDLE TENNESSEE...

CITY           SKY/WX    TMP DP  RH WIND       PRES   REMARKS
CLARKSVILLE    MOCLDY    44  39  82 E6        30.11F
CROSSVILLE     CLOUDY    44  42  93 CALM      30.11F
GALLATIN       CLEAR     45  41  87 CALM      30.16R
LEBANON        PTCLDY    43  41  93 CALM      30.10F
NASHVILLE      CLOUDY    46  40  79 CALM      30.13S
PORTLAND       CLEAR     43  41  93 CALM      30.12S
SMYRNA         MOCLDY    43  42  97 CALM      30.13F
SPRINGFIELD    PTCLDY    43  41  93 CALM      30.12S
WEST NASHVILLE CLEAR     45  39  81 CALM      30.13R
$$
TNZ056-058-060-061-075>077-079-093>097-190400
...SOUTHERN MIDDLE TENNESSEE...

CITY           SKY/WX    TMP DP  RH WIND       PRES   REMARKS
COLUMBIA       CLEAR     46  46 100 E3        30.08F
FAYETTEVILLE   PTCLDY    48  46  93 NE7       30.11F
MCMINNVILLE    CLEAR     45  45 100 CALM      30.12R
MURFREESBORO   MOCLDY    45  42  89 CALM      30.11F
SHELBYVILLE    CLEAR     46  45  93 CALM      30.12F
TULLAHOMA      PTCLDY    45  43  93 CALM      30.12F
WINCHESTER     PTCLDY    45  43  93 CALM      30.12F
$$


...KEY TO REMARKS...
VSB - VISIBILITY IN MILES
WCI - WIND CHILL INDEX
HX  - HEAT INDEX





USA.gov is the U.S. government's official web portal to all federal, state and local government web resources and services.